This demonstration page uses our WeatherBlox Daily Observations layout. Learn more.

Left ArrowRight Arrow

Hourly Observations for December 19, 2019

Temp ( °F °C ) Dew Point ( °F °C ) Humidity (%) Winds ( mph kmh ) Pressure ( in mb ) Visibility ( mi km ) Precip ( " mm )
12:56 am 00:56 Clear 28 -2.2 22 -5.6 78 78 SW 5 7 30.10 1019 10 16 0.00 0.00
1:56 am 01:56 Clear 23 -5 19 -7.2 85 85 Calm 30.10 1019 10 16 0.00 0.00
2:56 am 02:56 Clear 21 -6.1 19 -7.2 92 92 Calm 30.10 1019 10 16 0.00 0.00
3:56 am 03:56 Clear 23 -5 19 -7.2 85 85 SSW 3 6 30.10 1019 10 16 0.00 0.00
4:56 am 04:56 Clear 21 -6.1 18 -7.8 88 88 Calm 30.09 1019 10 16 0.00 0.00
5:56 am 05:56 Clear 19 -7.2 17 -8.3 92 92 S 3 6 30.09 1019 10 16 0.00 0.00
6:56 am 06:56 Clear 19 -7.2 17 -8.3 92 92 Calm 30.08 1019 10 16 0.00 0.00
7:56 am 07:56 Sunny 16 -8.9 13 -10.6 88 88 Calm 30.10 1019 10 16 0.00 0.00
8:56 am 08:56 Sunny 23 -5 21 -6.1 92 92 S 5 7 30.08 1019 10 16 0.00 0.00
9:56 am 09:56 Sunny 31 -0.6 25 -3.9 79 79 SSE 7 11 30.06 1018 10 16 0.00 0.00
10:56 am 10:56 Sunny 38 3.3 27 -2.8 65 65 S 9 15 30.05 1018 10 16 0.00 0.00
11:56 am 11:56 Sunny 40 4.4 25 -3.9 55 55 S 13 20 30.02 1017 10 16 0.00 0.00
12:56 pm 12:56 Sunny 43 6.1 27 -2.8 53 53 S 8 13 30.00 1016 10 16 0.00 0.00
1:56 pm 13:56 Sunny 48 8.9 28 -2.2 46 46 S 12 19 29.97 1015 10 16 0.00 0.00
2:56 pm 14:56 Sunny 48 8.9 25 -3.9 41 41 S 12 19 29.97 1015 10 16 0.00 0.00
3:56 pm 15:56 Sunny 45 7.2 24 -4.4 44 44 S 13 20 29.98 1015 10 16 0.00 0.00
4:56 pm 16:56 Sunny 39 3.9 25 -3.9 57 57 SSE 7 11 30.01 1016 10 16 0.00 0.00
5:56 pm 17:56 Clear 36 2.2 24 -4.4 62 62 S 6 9 30.02 1017 10 16 0.00 0.00
6:56 pm 18:56 Clear 38 3.3 22 -5.6 52 52 S 17 28 30.03 1017 10 16 0.00 0.00
7:56 pm 19:56 Clear 38 3.3 20 -6.7 48 48 S 15 24 30.06 1018 10 16 0.00 0.00
8:56 pm 20:56 Clear 39 3.9 17 -8.3 41 41 S 18 30 30.06 1018 10 16 0.00 0.00
9:56 pm 21:56 Clear 37 2.8 16 -8.9 42 42 S 16 26 30.06 1018 10 16 0.00 0.00
10:56 pm 22:56 Clear 35 1.7 16 -8.9 46 46 SSW 10 17 30.07 1018 10 16 0.00 0.00
11:56 pm 23:56 Clear 34 1.1 15 -9.4 46 46 SSW 14 22 30.07 1018 10 16 0.00 0.00

Powered by AerisWeather